Погода в Чкаловске

Россия / Нижегородская область     56°45′58″N   43°15′03″E
темп.,
°C
ветер,
м/с
пор.,
м/с
влажн.,
%
обл.,
%
осадки,
мм/ч
давл.,
гПа
погр.,
м
23 мая, пн
пн2300:00+2ссз577562 0.1 1003543
03:00+1ссз578523 0.1 1003444
06:00+1сз568499 0.0 1002483
09:00+3сз5670100 0.1 10011089
12:00+4сз6765100 0.1 10011359
15:00+5сз6771100 0.3 10011085
18:00+4зсз71090100 0.8 1001984
21:00+2зсз71097100 1.5 1001585
24 мая, вт
вт2400:00+2з6997100 0.5 1001520
03:00+2зсз6999100 1.6 1001544
06:00+2ссз4595100 1.4 1001463
09:00+3ссз4573100 1.7 10021116
12:00+4ссз4463100 0.4 10041111
15:00+6сз4567100 0.9 10061091
18:00+6ссз4562100 0.3 10071072
21:00+5ссз578090 0.4 1008376
25 мая, ср
ср2500:00+3ссз589121 0.1 1009371
03:00+2ссз689359 0.1 1010386
06:00+3ссз588852 0.0 1011444
09:00+5сз6882100 0.0 1012643
12:00+7сз7769100 0.1 10121130
15:00+8сз676362 0.4 10121290
18:00+8сз687234 0.4 10121076
21:00+6сз588690 0.5 1013311
26 мая, чт
чт2600:00+6зсз5982100 0.0 1013312
03:00+5з578597 0.0 1013218
06:00+5зюз5779100 0.0 1012266
09:00+9з456145 0.0 1011743
12:00+11юз4656100 0.0 1009712
15:00+13ююз465468 0.0 1006760
18:00+14ююз2262100 0.0 100471
21:00+11ю5985100 0.1 1001226
27 мая, пт
пт2700:00+10вюв4895100 1.1 998331
03:00+9всв5998100 8.3 994387
06:00+9ссв5797100 6.6 994396
09:00+9ссз6894100 9.4 995460
12:00+10с3485100 0.5 998241
15:00+12з6886100 1.3 999320
18:00+12з588459 0.4 1001324
21:00+10юз479195 0.5 1002107